User: anonymous   Login
Location: Oberwangen
(47.4286°N, 8.9679°E)
Time: 03:30:29
(UTC+00:00)
Language:

IGS 5A - Orbit

View from above orbital plane
View from above orbital plane
View from above satellite
View from above satellite

Ground track
Ground track

The orbit data is extracted from the following two-line orbital elements,

1 36104U 09066A   21266.87031187 0.00000300  00000-0  28181-4 0    07
2 36104  97.5427 317.5021 0002036  13.5438 346.4561 14.94010330    08
Epoch (UTC): 23 September 2021 20:53:14
Eccentricity: 0.0002036
inclination: 97.5427°
perigee height: 584 km
apogee height: 587 km
right ascension of ascending node: 317.5021°
argument of perigee: 13.5438°
revolutions per day: 14.94010330
mean anomaly at epoch: 346.4561°
orbit number at epoch: 0

The dashed part of the orbit path shows where the satellite is in the earth's shadow,  

DLR